Home > Weather > Everett > Past weeks

Flag for USA Weather for the Past 2 Weeks in Everett, Washington, USA

Now
59 °F

Sunny.


Feels Like: 58 °F
Forecast: 43 / 63 °F
Wind: 7 mph from North

Location: Snohomish County Airport

Current Time: Apr 30, 2016 at 2:16:39 PM

Latest Report: Apr 30, 2016 at 1:53 PM


Visibility: 10 mi

Pressure: 30.35 "Hg

Humidity: 60%

Dew Point: 45 °F

Location of EverettLocation

Historic Weather in Everett — Graph

°F

Everett Temperature Yesterday

Maximum temperature yesterday: 58 °F (at 4:53 PM)
Minimum temperature yesterday: 46 °F (at 5:01 AM)
Average temperature yesterday: 51 °F

High & Low Weather Summary for the Past Weeks

 TemperatureHumidityPressure
High82 °F (Apr 18, 3:53 PM)93% (Apr 23, 6:53 AM)30.38 "Hg (Apr 23, 6:53 AM)
Low43 °F (Apr 25, 2:53 AM)19% (Apr 18, 4:53 PM)29.61 "Hg (Apr 22, 1:53 AM)
Average56 °F66%30.05 "Hg
* Reported Apr 15 12:53 PM — Apr 30 12:53 PM, Everett, Weather by CustomWeather, © 2016

Note: Actual official high and low records may vary slightly from our data, if they occured in-between our weather recording intervals... More about our weather records

Advertising

Everett Weather History for the Previous 24 Hours

Scroll right to see more
 ConditionsComfort  
Time TempWeatherWind HumidityBarometerVisibility
12:53 PM
Sat, Apr 30
57 °FSunny.9 mph64%30.36 "Hg10 mi
11:53 AM57 °FPassing clouds.No wind67%30.36 "Hg10 mi
10:53 AM55 °FScattered clouds.5 mph67%30.37 "Hg10 mi
9:53 AM51 °FPartly sunny.5 mph77%30.38 "Hg10 mi
8:53 AM51 °FPassing clouds.3 mph74%30.37 "Hg10 mi
7:53 AM49 °FSunny.5 mph77%30.36 "Hg10 mi
6:53 AM47 °FSunny.6 mph83%30.34 "Hg10 mi
5:53 AM45 °FClear.5 mph86%30.33 "Hg10 mi
4:53 AM45 °FClear.No wind82%30.32 "Hg10 mi
3:53 AM47 °FClear.5 mph80%30.31 "Hg10 mi
2:53 AM47 °FClear.3 mph80%30.29 "Hg10 mi
1:53 AM47 °FClear.5 mph80%30.27 "Hg10 mi
12:53 AM49 °FClear.6 mph77%30.26 "Hg10 mi
11:53 PM
Fri, Apr 29
49 °FClear.7 mph80%30.25 "Hg10 mi
10:53 PM50 °FClear.6 mph74%30.24 "Hg10 mi
9:53 PM50 °FClear.6 mph80%30.22 "Hg10 mi
8:53 PM52 °FSunny.6 mph72%30.20 "Hg10 mi
7:53 PM55 °FSunny.6 mph62%30.18 "Hg10 mi
6:53 PM55 °FScattered clouds.6 mph62%30.17 "Hg10 mi
5:53 PM55 °FPassing clouds.5 mph62%30.16 "Hg10 mi
4:53 PM58 °FSunny.6 mph54%30.15 "Hg10 mi
3:53 PM57 °FScattered clouds.5 mph60%30.14 "Hg10 mi
2:53 PM55 °FMore clouds than sun.6 mph62%30.14 "Hg10 mi
Weather by CustomWeather, © 2016

See weather overviewHow to use our weather pages